RH
17 18 17 16 15 12 21 36 46 39 32 22 20 29 24 30 19 18 18 18 18 18 17 17 19 20 20 28 34 34 41 61 60 54 46 42 51 56 56 59 60 51 48
36 18 18 13 12 16 24 33 40 41 34 22 18 22 21 21 20 20 19 18 19 18 18 20 21 26 32 36 39 47 64 75 64 90 86 63 62 61 59 57 54 54 60
21 24 24 17 14 14 20 22 49 46 48 27 19 22 25 23 21 25 34 22 20 20 27 31 34 35 41 47 51 58 94 98 74 53 57 63 64 64 63 63 64 69 77
25 20 18 25 29 14 14 36 56 50 63 42 22 22 21 21 25 40 60 49 52 53 55 60 58 62 55 63 100 91 86 91 66 51 56 62 60 51 47 60 71 75 77
27 30 33 37 42 59 25 30 46 39 50 60 50 43 36 38 35 48 55 62 77 76 71 80 83 75 81 69 72 99 100 94 71 53 59 61 62 66 66 65 74 79 88
57 42 42 48 92 87 62 39 62 75 61 76 91 50 29 31 41 55 71 77 89 96 88 83 86 86 87 87 80 44 51 49 55 60 61 63 63 69 79 84 90 89 87
34 65 66 85 88 71 64 55 75 72 49 91 89 75 60 57 60 64 79 92 100 100 94 86 91 92 86 72 50 47 54 54 56 62 61 62 67 75 82 87 85 76 72
58 53 48 44 47 65 58 49 47 55 64 87 98 79 67 60 54 84 97 100 100 100 95 100 96 92 86 61 57 59 55 56 56 52 54 71 82 81 91 65 45 54 40
37 18 22 50 84 91 88 39 30 24 28 40 54 52 51 67 72 97 100 99 97 92 100 96 82 87 89 59 58 52 55 62 60 56 67 82 87 86 71 67 24 12 39
25 18 19 18 17 24 19 18 19 19 19 25 50 74 71 74 84 94 94 99 92 85 88 83 88 100 64 56 54 62 65 60 58 72 80 80 68 73 79 41 31 92 94
42 21 20 19 19 19 19 20 20 23 38 57 80 75 87 87 90 94 100 94 85 79 94 91 99 74 55 57 74 69 62 78 87 78 64 25 14 44 13 52 80 75 35
55 32 25 21 20 19 20 20 25 50 71 67 73 88 95 97 100 100 100 98 99 84 73 95 79 59 70 85 67 60 77 85 93 86 72 6 8 22 48 74 58 23 17
27 24 22 21 22 21 21 42 76 79 64 68 80 75 85 96 99 88 89 48 49 53 64 77 68 80 89 74 72 89 93 94 96 96 6 6 15 32 74 44 30 22 20
20 22 24 26 26 21 33 62 79 61 48 52 47 74 74 61 46 46 44 45 44 45 65 75 80 73 72 97 100 100 75 64 87 15 8 20 47 79 40 33 32 31 22
21 20 18 18 18 21 31 36 26 14 10 7 28 51 40 32 45 49 44 34 51 89 92 77 83 97 100 100 100 100 30 7 12 20 14 30 69 44 37 40 42 32 20
21 19 20 20 18 15 10 9 6 4 4 4 6 12 23 35 43 43 36 68 100 84 80 70 99 100 100 62 83 30 7 7 11 11 16 48 52 44 46 46 43 28 21
25 23 22 20 16 10 8 5 5 4 5 6 11 22 37 43 44 42 80 95 84 79 73 75 96 85 72 18 6 5 6 8 10 15 54 58 55 63 53 46 40 29 23
23 20 18 13 10 7 6 6 5 6 7 10 17 28 42 46 49 65 78 78 75 98 100 67 46 29 8 6 6 7 9 10 12 34 51 57 61 77 51 43 42 31 24
23 20 14 10 6 7 8 8 9 9 9 13 22 37 49 54 60 74 78 74 73 93 66 48 26 10 7 7 8 9 10 13 22 43 44 44 66 91 60 46 43 33 26
20 13 9 9 10 10 12 14 14 12 13 21 35 48 52 59 74 81 77 74 67 56 44 27 12 8 8 9 10 12 14 21 37 42 43 58 93 94 70 50 43 36 30
12 11 12 13 16 24 27 22 18 16 23 39 51 56 63 77 83 82 83 82 71 58 37 17 9 9 9 10 12 15 22 47 49 48 85 100 97 98 71 53 45 35 32
16 20 26 33 37 37 33 24 19 25 39 53 62 72 85 92 95 95 90 83 74 59 27 12 9 10 11 12 17 26 46 84 97 100 100 100 99 93 68 52 44 37 39
17 24 35 41 44 43 33 23 26 40 55 64 78 93 100 100 96 93 88 84 70 42 16 10 10 10 12 18 29 51 82 100 100 100 100 100 94 78 58 48 45 39 49
19 30 46 56 56 45 32 29 40 55 66 73 79 83 87 90 86 85 86 73 38 17 11 10 10 12 16 26 54 76 99 100 98 96 92 81 63 47 40 47 53 47 54
35 48 58 63 57 42 34 44 60 67 71 74 77 79 76 74 82 88 70 35 16 12 10 12 15 19 21 36 47 68 72 70 68 61 53 43 33 35 40 50 57 57 58
38 51 63 62 51 43 52 67 74 77 80 77 73 75 84 91 87 64 38 18 12 12 17 22 28 36 51 49 41 43 53 52 42 32 26 23 26 30 38 51 50 59 64
Wind_Speed
8 7 8 8 8 8 8 6 5 4 4 4 5 7 7 7 7 10 12 16 19 23 27 31 34 38 42 44 45 47 48 46 47 45 46 45 45 46 47 49 50 50 49
11 10 9 8 8 7 8 8 10 8 7 8 9 8 9 10 12 15 18 20 24 28 31 34 37 41 43 44 45 46 45 46 47 47 50 50 50 51 53 53 53 54 56
8 9 10 9 7 5 5 8 10 11 11 12 13 12 13 15 17 21 23 25 29 33 36 37 41 42 42 42 43 44 42 46 53 52 51 52 53 55 56 56 58 60 63
9 8 7 9 10 7 8 10 11 13 13 15 17 16 17 18 22 25 28 33 36 38 41 44 46 45 43 40 46 48 48 52 56 56 55 57 59 59 60 62 64 68 71
13 10 9 10 10 13 12 13 14 14 14 13 14 17 19 20 26 30 34 38 40 42 44 46 48 48 45 46 46 45 53 59 61 59 61 62 63 65 68 70 73 76 77
18 19 19 17 16 17 17 15 14 12 11 13 14 16 21 25 29 33 37 41 43 43 45 46 49 48 49 46 55 55 58 60 60 62 63 66 68 70 72 75 77 78 80
16 22 23 22 20 17 15 14 15 13 14 22 16 19 24 29 33 37 37 40 41 44 50 50 50 52 55 58 58 58 58 60 63 65 67 70 73 76 79 80 82 84 83
11 15 19 22 19 19 16 14 14 17 18 23 21 25 28 33 36 37 38 39 45 47 51 49 54 53 58 61 60 60 62 63 66 69 72 74 77 81 82 84 86 84 84
16 12 12 15 15 15 13 15 17 18 21 24 26 29 34 35 37 37 39 48 52 55 50 56 57 57 63 61 63 64 64 67 70 74 77 80 83 83 85 87 89 87 81
14 12 11 11 10 11 14 17 21 23 27 30 31 32 36 37 38 39 43 48 53 57 58 62 61 63 63 64 65 64 67 70 73 75 78 81 83 86 87 92 88 80 81
18 16 16 14 15 16 17 22 26 27 29 31 32 34 36 37 38 42 44 52 56 59 64 63 64 66 65 65 64 66 70 74 76 77 78 83 84 86 89 85 83 82 75
21 20 19 19 21 21 24 28 31 31 31 32 35 36 36 39 40 43 49 55 61 65 66 66 66 64 62 62 64 67 71 77 77 80 86 83 84 86 83 83 78 66 63
21 22 19 21 23 27 29 32 33 31 32 35 36 39 40 41 43 50 52 59 61 62 63 63 62 60 61 68 67 70 74 77 80 86 85 87 86 84 80 69 62 59 62
18 20 22 24 27 30 33 34 33 34 35 37 39 38 40 45 48 50 55 58 60 61 60 60 59 59 66 68 73 75 77 82 84 83 85 86 80 73 66 61 59 61 63
21 24 25 27 30 33 34 33 33 36 37 37 39 39 43 44 49 53 56 59 58 56 57 60 63 59 56 63 73 77 80 78 79 83 83 80 72 63 63 59 59 61 62
25 27 29 31 32 33 32 33 37 39 42 45 45 43 46 49 52 56 59 56 56 57 57 64 65 68 74 74 77 81 78 77 79 81 79 70 62 61 59 57 58 59 60
27 30 32 33 33 32 34 37 40 43 46 47 46 46 48 51 55 58 53 55 58 58 59 61 54 73 78 76 75 77 76 77 79 78 67 61 59 58 57 56 57 59 58
30 30 31 31 32 35 38 41 44 47 48 48 49 50 52 55 56 55 54 54 55 55 59 68 68 71 72 74 75 76 77 77 77 68 62 60 60 58 56 57 57 57 56
30 31 32 33 35 38 41 44 46 47 48 49 50 52 54 56 55 52 51 53 53 51 68 68 70 70 72 75 76 78 78 77 71 61 62 59 60 59 55 55 56 56 54
30 32 34 36 39 42 44 45 46 48 49 51 52 54 55 54 52 51 53 56 58 61 65 67 70 72 72 76 77 78 78 73 64 63 59 57 58 56 55 54 55 55 52
31 33 35 38 41 42 44 45 48 50 51 53 54 54 53 52 52 54 57 61 64 66 67 68 71 74 76 77 78 77 74 65 60 57 56 58 57 57 56 55 54 53 50
31 34 37 40 42 44 46 48 50 51 52 53 53 52 52 53 55 57 61 65 67 69 70 71 73 76 79 79 75 72 66 61 57 57 57 58 58 57 56 55 55 51 47
36 37 40 42 45 47 49 51 52 52 52 53 52 52 52 54 58 61 66 69 71 71 72 75 77 78 79 76 70 65 61 59 58 58 58 58 58 58 57 55 54 50 45
39 41 43 46 48 50 52 53 53 54 55 55 53 53 56 59 62 66 71 72 72 74 76 79 82 81 79 70 64 62 60 59 59 57 58 58 60 61 59 55 53 50 43
42 44 47 49 51 53 55 55 56 57 55 53 54 56 58 62 67 71 72 73 76 79 82 82 83 81 75 62 59 62 63 62 61 62 61 61 62 60 58 53 50 48 43
47 49 51 53 54 56 56 57 58 56 54 54 56 60 64 69 71 72 74 77 80 82 81 81 78 73 69 65 64 63 63 64 65 66 64 63 60 58 54 46 46 45 42
Wind_Direction
131 141 143 137 135 142 151 178 186 228 248 251 198 186 193 206 232 254 268 283 295 302 305 306 308 308 308 309 310 311 314 315 312 310 310 308 304 305 304 301 300 297 293
160 153 153 152 156 163 171 191 203 215 226 210 209 210 230 242 252 270 284 294 299 301 304 304 307 310 312 314 313 312 311 312 311 307 309 308 306 305 304 301 298 296 293
177 169 177 183 193 202 215 220 220 222 231 227 220 225 238 258 275 281 287 298 299 301 300 303 312 315 314 311 311 308 305 306 310 309 307 305 304 304 303 300 298 296 295
185 197 215 230 239 246 248 242 234 236 233 232 232 242 254 270 284 296 297 301 301 301 303 303 307 314 314 310 317 312 305 304 308 307 305 306 305 304 304 302 301 300 299
203 210 228 241 260 277 275 257 245 245 236 229 239 255 272 292 299 302 303 304 302 300 306 305 309 313 311 314 307 308 300 300 306 308 309 308 307 306 306 305 303 303 303
216 219 221 232 251 253 262 261 246 252 261 264 266 282 296 301 304 304 303 301 300 301 305 305 307 307 308 304 302 302 300 305 308 308 308 308 308 307 305 304 303 303 305
232 224 231 238 245 251 253 262 259 274 278 273 281 292 297 300 300 299 300 297 296 297 303 306 306 311 304 308 305 305 308 308 309 308 308 307 307 306 305 305 304 305 305
237 229 239 239 242 242 241 254 272 282 282 282 288 296 299 302 302 300 300 297 295 297 300 303 303 299 304 307 307 309 309 308 307 307 307 308 307 306 305 307 308 307 307
275 254 241 246 234 231 242 264 276 286 289 294 297 302 305 304 305 300 298 297 296 299 297 302 302 302 306 307 308 309 308 307 308 308 309 308 308 307 306 310 311 315 317
259 244 239 243 253 260 267 278 281 287 294 298 302 303 302 301 300 297 293 289 291 298 298 301 302 304 307 308 307 307 308 308 308 309 308 307 308 309 310 312 319 316 312
254 249 251 258 264 266 274 278 283 290 296 301 301 302 299 302 301 292 288 292 294 300 301 301 301 305 307 306 306 308 309 309 309 307 308 312 312 312 316 319 315 315 314
258 256 256 264 269 271 269 277 289 294 295 299 299 300 300 304 300 289 290 292 296 301 300 299 301 304 304 303 304 307 309 307 306 307 309 313 314 319 317 316 317 314 310
251 249 259 268 271 273 273 283 286 292 294 294 297 299 297 298 292 292 294 297 300 299 298 299 302 304 305 304 303 304 309 306 307 309 312 315 316 316 316 318 313 313 319
255 260 266 269 269 273 278 280 285 292 298 298 297 294 290 290 294 293 296 297 297 297 299 302 301 302 309 305 301 303 309 307 307 312 315 315 314 316 318 316 314 317 320
264 265 267 270 272 275 280 285 289 292 298 304 299 294 295 299 298 300 299 297 297 298 300 302 302 303 309 297 298 302 307 307 310 312 313 313 314 317 319 314 315 318 321
264 268 272 276 280 283 289 296 298 302 304 305 306 304 302 300 300 300 300 298 296 300 301 309 310 297 305 303 300 303 308 310 311 310 311 312 314 317 317 312 317 320 323
272 277 282 285 287 294 297 299 303 306 306 306 304 302 302 302 302 302 299 297 300 303 305 303 299 297 302 301 303 306 308 311 310 310 310 308 311 312 311 314 318 322 323
274 281 287 291 296 298 302 305 307 307 306 305 304 303 303 303 302 300 297 300 305 300 299 304 301 301 302 304 306 307 308 309 308 308 307 304 308 311 310 314 319 323 322
285 290 292 295 298 303 307 306 305 304 302 301 300 301 301 302 300 299 300 302 304 294 301 302 302 301 302 304 306 306 307 307 308 302 304 303 306 309 309 313 318 322 320
289 293 295 298 304 305 304 304 304 303 303 303 302 302 302 301 301 301 302 303 303 303 303 303 302 302 303 305 306 307 306 306 302 299 302 302 306 307 309 312 316 319 318
290 294 299 303 302 301 302 304 304 304 303 301 302 303 303 301 300 300 301 303 305 306 305 303 302 304 305 306 306 305 305 302 299 300 301 302 305 307 308 311 314 316 313
296 299 300 299 300 303 305 305 303 302 301 302 304 303 301 299 300 302 304 307 307 306 304 304 304 305 306 306 305 304 302 300 299 299 300 301 303 305 307 308 310 311 308
298 298 300 303 304 303 303 304 303 302 302 303 302 301 301 301 303 305 307 307 306 305 304 304 305 305 306 305 305 302 300 299 299 299 299 300 302 304 305 304 304 306 301
301 303 304 302 302 303 305 304 304 304 304 304 303 304 304 305 306 307 307 306 305 304 304 306 307 307 308 307 303 301 300 300 299 298 298 300 301 301 301 300 298 299 297
302 302 303 304 305 306 306 305 305 305 304 304 305 304 304 306 307 306 306 306 306 306 308 308 308 308 308 306 302 300 299 299 298 297 299 299 298 297 297 297 294 293 292
304 307 307 307 306 306 306 306 305 304 303 304 304 305 306 307 306 306 307 308 308 309 309 310 309 307 306 305 302 299 297 297 297 297 297 296 295 295 293 291 290 287 287